H1 CPF 2 NER 2025 7 26 9 207 01 glonass146 H2 2216101 9146 54377 2025 7 26 0 0 0 2025 7 29 23 45 0 900 1 1 0 0 0 1 H9 10 0 60882 0.00000 0 -11306240.071 -2028729.578 -22762284.901 10 0 60882 900.00000 0 -11929807.954 -4725722.883 -22036108.873 10 0 60882 1800.00000 0 -12716208.365 -7258400.880 -20881570.587 10 0 60882 2700.00000 0 -13628247.871 -9569457.484 -19321268.003 10 0 60882 3600.00000 0 -14619892.010 -11610451.509 -17385664.196 10 0 60882 4500.00000 0 -15638244.560 -13343566.181 -15112484.890 10 0 60882 5400.00000 0 -16625831.150 -14742925.618 -12545976.903 10 0 60882 6300.00000 0 -17523090.724 -15795415.435 -9736042.318 10 0 60882 7200.00000 0 -18270969.834 -16500975.407 -6737265.540 10 0 60882 8100.00000 0 -18813510.633 -16872354.198 -3607852.342 10 0 60882 9000.00000 0 -19100323.892 -16934338.508 -408501.529 10 0 60882 9900.00000 0 -19088843.322 -16722490.824 2798768.856 10 0 60882 10800.00000 0 -18746266.811 -16281450.264 5951818.205 10 0 60882 11700.00000 0 -18051103.318 -15662868.978 8989580.052 10 0 60882 12600.00000 0 -16994260.727 -14923071.468 11853236.057 10 0 60882 13500.00000 0 -15579629.018 -14120535.432 14487345.210 10 0 60882 14400.00000 0 -13824134.059 -13313299.792 16840907.214 10 0 60882 15300.00000 0 -11757259.145 -12556408.375 18868340.353 10 0 60882 16200.00000 0 -9420053.251 -11899495.930 20530355.908 10 0 60882 17100.00000 0 -6863665.975 -11384617.123 21794713.134 10 0 60882 18000.00000 0 -4147468.514 -11044409.030 22636840.964 10 0 60882 18900.00000 0 -1336836.873 -10900663.848 23040314.962 10 0 60882 19800.00000 0 1499312.609 -10963371.662 22997180.542 10 0 60882 20700.00000 0 4291135.105 -11230273.809 22508116.003 10 0 60882 21600.00000 0 6970509.921 -11686946.377 21582431.686 10 0 60882 22500.00000 0 9473625.334 -12307411.484 20237904.303 10 0 60882 23400.00000 0 11743389.403 -13055252.064 18500448.374 10 0 60882 24300.00000 0 13731567.215 -13885184.788 16403629.707 10 0 60882 25200.00000 0 15400555.874 -14745026.366 13988028.779 10 0 60882 26100.00000 0 16724723.069 -15577971.505 11300464.982 10 0 60882 27000.00000 0 17691252.956 -16325087.200 8393095.619 10 0 60882 27900.00000 0 18300463.450 -16927918.262 5322406.314 10 0 60882 28800.00000 0 18565581.167 -17331093.552 2148112.165 10 0 60882 29700.00000 0 18511983.233 -17484821.829 -1068008.831 10 0 60882 30600.00000 0 18175937.911 -17347170.185 -4263326.798 10 0 60882 31500.00000 0 17602897.568 -16886026.945 -7375590.757 10 0 60882 32400.00000 0 16845416.813 -16080664.119 -10344153.943 10 0 60882 33300.00000 0 15960784.871 -14922831.469 -13111168.338 10 0 60882 34200.00000 0 15008473.607 -13417334.313 -15622723.714 10 0 60882 35100.00000 0 14047510.461 -11582069.294 -17829907.768 10 0 60882 36000.00000 0 13133888.686 -9447515.582 -19689765.777 10 0 60882 36900.00000 0 12318125.414 -7055702.289 -21166140.427 10 0 60882 37800.00000 0 11643071.417 -4458695.114 -22230375.347 10 0 60882 38700.00000 0 11142065.351 -1716665.569 -22861868.792 10 0 60882 39600.00000 0 10837510.202 1104376.354 -23048467.225 10 0 60882 40500.00000 0 10739931.411 3935091.307 -22786691.886 10 0 60882 41400.00000 0 10847555.456 6705456.885 -22081794.822 10 0 60882 42300.00000 0 11146425.505 9347441.031 -20947644.241 10 0 60882 43200.00000 0 11611047.985 11797591.759 -19406442.324 10 0 60882 44100.00000 0 12205541.564 13999436.236 -17488281.805 10 0 60882 45000.00000 0 12885238.945 15905590.490 -15230550.639 10 0 60882 45900.00000 0 13598673.017 17479493.382 -12677196.928 10 0 60882 46800.00000 0 14289862.901 18696694.326 -9877868.799 10 0 60882 47700.00000 0 14900803.066 19545642.954 -6886946.272 10 0 60882 48600.00000 0 15374050.364 20027949.791 -3762484.161 10 0 60882 49500.00000 0 15655299.965 20158109.027 -565086.551 10 0 60882 50400.00000 0 15695841.816 19962696.854 2643265.263 10 0 60882 51300.00000 0 15454794.459 19479080.545 5800408.841 10 0 60882 52200.00000 0 14901022.456 18753693.657 8845197.805 10 0 60882 53100.00000 0 14014657.020 17839950.524 11718677.442 10 0 60882 54000.00000 0 12788156.007 16795887.978 14365216.587 10 0 60882 54900.00000 0 11226858.556 15681633.150 16733574.703 10 0 60882 55800.00000 0 9349010.583 14556803.244 18777884.372 10 0 60882 56700.00000 0 7185259.092 13477945.625 20458531.169 10 0 60882 57600.00000 0 4777635.051 12496124.689 21742914.837 10 0 60882 58500.00000 0 2178065.554 11654755.832 22606077.794 10 0 60882 59400.00000 0 -553524.806 10987776.532 23031189.399 10 0 60882 60300.00000 0 -3351446.559 10518230.666 23009876.854 10 0 60882 61200.00000 0 -6146721.375 10257325.278 22542396.168 10 0 60882 62100.00000 0 -8869700.698 10203999.557 21637639.362 10 0 60882 63000.00000 0 -11452720.042 10345024.733 20312976.810 10 0 60882 63900.00000 0 -13832680.018 10655631.634 18593936.551 10 0 60882 64800.00000 0 -15953447.699 11100640.646 16513725.304 10 0 60882 65700.00000 0 -17767978.769 11636047.726 14112598.951 10 0 60882 66600.00000 0 -19240071.924 12211000.633 11437093.265 10 0 60882 67500.00000 0 -20345681.854 12770082.789 8539128.643 10 0 60882 68400.00000 0 -21073735.270 13255808.561 5475005.347 10 0 60882 69300.00000 0 -21426415.051 13611224.267 2304308.503 10 0 60882 70200.00000 0 -21418900.034 13782504.062 -911255.773 10 0 60882 71100.00000 0 -21078571.062 13721429.545 -4109069.841 10 0 60882 72000.00000 0 -20443716.781 13387646.445 -7226835.012 10 0 60882 72900.00000 0 -19561794.182 12750600.940 -10203797.756 10 0 60882 73800.00000 0 -18487318.102 11791071.742 -12981946.343 10 0 60882 74700.00000 0 -17279469.916 10502231.290 -15507153.151 10 0 60882 75600.00000 0 -15999527.620 8890189.636 -17730239.132 10 0 60882 76500.00000 0 -14708227.073 6973996.765 -19607938.783 10 0 60882 77400.00000 0 -13463166.863 4785102.331 -21103746.181 10 0 60882 78300.00000 0 -12316367.030 2366294.914 -22188625.432 10 0 60882 79200.00000 0 -11312084.939 -229835.011 -22841571.883 10 0 60882 80100.00000 0 -10484980.210 -2942844.112 -23050013.666 10 0 60882 81000.00000 0 -9858705.410 -5706715.766 -22810046.482 10 0 60882 81900.00000 0 -9444980.807 -8452375.011 -22126497.985 10 0 60882 82800.00000 0 -9243190.785 -11110334.114 -21012821.405 10 0 60882 83700.00000 0 -9240517.358 -13613358.845 -19490821.441 10 0 60882 84600.00000 0 -9412603.476 -15899045.011 -17590218.530 10 0 60882 85500.00000 0 -9724716.627 -17912198.767 -15348060.727 10 0 60883 0.00000 0 -10133362.203 -19606922.588 -12807995.398 10 0 60883 900.00000 0 -10588277.683 -20948322.210 -10019413.933 10 0 60883 1800.00000 0 -11034722.049 -21913762.754 -7036489.861 10 0 60883 2700.00000 0 -11415964.044 -22493626.375 -3917124.743 10 0 60883 3600.00000 0 -11675863.442 -22691539.210 -721825.705 10 0 60883 4500.00000 0 -11761436.629 -22524060.807 2487464.895 10 0 60883 5400.00000 0 -11625298.382 -22019850.431 5648564.936 10 0 60883 6300.00000 0 -11227877.189 -21218346.414 8700250.253 10 0 60883 7200.00000 0 -10539310.988 -20168014.788 11583431.848 10 0 60883 8100.00000 0 -9540943.745 -18924241.115 14242290.433 10 0 60883 9000.00000 0 -8226359.792 -17546953.890 16625347.163 10 0 60883 9900.00000 0 -6601912.160 -16098078.782 18686450.685 10 0 60883 10800.00000 0 -4686721.915 -14638929.623 20385662.416 10 0 60883 11700.00000 0 -2512147.290 -13227644.472 21690023.856 10 0 60883 12600.00000 0 -120743.150 -11916772.988 22574191.863 10 0 60883 13500.00000 0 2435247.806 -10751115.077 23020930.206 10 0 60883 14400.00000 0 5095811.535 -9765900.322 23021448.141 10 0 60883 15300.00000 0 7795409.351 -8985383.833 22575579.321 10 0 60883 16200.00000 0 10465463.716 -8421917.002 21691797.057 10 0 60883 17100.00000 0 13036981.778 -8075532.237 20387064.706 10 0 60883 18000.00000 0 15443209.199 -7934059.539 18686522.841 10 0 60883 18900.00000 0 17622204.987 -7973770.729 16623017.828 10 0 60883 19800.00000 0 19519230.723 -8160525.124 14236479.389 10 0 60883 20700.00000 0 21088854.596 -8451369.209 11573157.807 10 0 60883 21600.00000 0 22296681.975 -8796523.540 8684734.367 10 0 60883 22500.00000 0 23120639.422 -9141673.241 5627321.470 10 0 60883 23400.00000 0 23551757.441 -9430465.159 2460371.466 10 0 60883 24300.00000 0 23594418.228 -9607105.356 -754484.411 10 0 60883 25200.00000 0 23266057.353 -9618945.832 -3954643.891 10 0 60883 26100.00000 0 22596331.526 -9418949.362 -7077763.704 10 0 60883 27000.00000 0 21625787.565 -8967926.214 -10062986.585 10 0 60883 27900.00000 0 20404089.080 -8236446.071 -12852139.929 10 0 60883 28800.00000 0 18987876.493 -7206342.298 -15390881.289 10 0 60883 29700.00000 0 17438351.627 -5871743.212 -17629767.136 10 0 60883 30600.00000 0 15818689.894 -4239585.277 -19525223.134 10 0 60883 31500.00000 0 14191390.167 -2329585.473 -21040396.344 10 0 60883 32400.00000 0 12615674.813 -173673.138 -22145872.604 10 0 60883 33300.00000 0 11145049.752 2185095.314 -22820245.242 10 0 60883 34200.00000 0 9825127.216 4694093.555 -23050524.560 10 0 60883 35100.00000 0 8691802.187 7293089.272 -22832380.845 10 0 60883 36000.00000 0 7769858.191 9916532.800 -22170217.073 10 0 60883 36900.00000 0 7072059.596 12496074.944 -21077070.827 10 0 60883 37800.00000 0 6598766.828 14963209.134 -19574348.258 10 0 60883 38700.00000 0 6338088.762 17251928.142 -17691396.075 10 0 60883 39600.00000 0 6266563.920 19301285.148 -15464920.622 10 0 60883 40500.00000 0 6350339.922 21057753.264 -12938265.893 10 0 60883 41400.00000 0 6546799.870 22477286.185 -10160564.956 10 0 60883 42300.00000 0 6806565.731 23526995.226 -7185781.612 10 0 60883 43200.00000 0 7075793.210 24186374.183 -4071661.105 10 0 60883 44100.00000 0 7298660.611 24448022.352 -878610.347 10 0 60883 45000.00000 0 7419946.308 24317836.949 2331470.605 10 0 60883 45900.00000 0 7387585.983 23814668.312 5496383.307 10 0 60883 46800.00000 0 7155101.888 22969453.488 8554829.064 10 0 60883 47700.00000 0 6683801.906 21823865.370 11447587.667 10 0 60883 48600.00000 0 5944655.977 20428534.474 14118654.515 10 0 60883 49500.00000 0 4919770.947 18840917.886 16516314.947 10 0 60883 50400.00000 0 3603401.643 17122904.278 18594135.830 10 0 60883 51300.00000 0 2002455.150 15338254.485 20311856.203 10 0 60883 52200.00000 0 136466.146 13549983.667 21636160.705 10 0 60883 53100.00000 0 -1962957.126 11817793.310 22541321.599 10 0 60883 54000.00000 0 -4253194.940 10195659.103 23009697.579 10 0 60883 54900.00000 0 -6682144.114 8729674.286 23032079.991 10 0 60883 55800.00000 0 -9190150.621 7456237.628 22607879.640 10 0 60883 56700.00000 0 -11712268.664 6400661.060 21745150.101 10 0 60883 57600.00000 0 -14180754.404 5576254.901 20460446.125 10 0 60883 58500.00000 0 -16527692.325 4983928.974 18778518.704 10 0 60883 59400.00000 0 -18687646.295 4612326.659 16731851.239 10 0 60883 60300.00000 0 -20600225.628 4438486.792 14360044.260 10 0 60883 61200.00000 0 -22212459.300 4429006.147 11709059.215 10 0 60883 62100.00000 0 -23480878.811 4541654.052 8830334.751 10 0 60883 63000.00000 0 -24373221.815 4727371.290 5779791.795 10 0 60883 63900.00000 0 -24869684.042 4932568.750 2616746.379 10 0 60883 64800.00000 0 -24963665.869 5101628.065 -597248.562 10 0 60883 65700.00000 0 -24661981.108 5179497.383 -3799609.333 10 0 60883 66600.00000 0 -23984518.422 5114270.912 -6927951.045 10 0 60883 67500.00000 0 -22963369.201 4859641.192 -9921315.382 10 0 60883 68400.00000 0 -21641458.647 4377118.309 -12721371.246 10 0 60883 69300.00000 0 -20070738.132 3637920.116 -15273563.406 10 0 60883 70200.00000 0 -18310015.762 2624451.659 -17528185.505 10 0 60883 71100.00000 0 -16422517.423 1331309.659 -19441355.586 10 0 60883 72000.00000 0 -14473281.940 -234231.621 -20975874.431 10 0 60883 72900.00000 0 -12526500.783 -2052274.572 -22101949.832 10 0 60883 73800.00000 0 -10642914.582 -4090890.862 -22797772.811 10 0 60883 74700.00000 0 -8877375.993 -6307227.907 -23049935.080 10 0 60883 75600.00000 0 -7276680.774 -8649082.985 -22853680.298 10 0 60883 76500.00000 0 -5877757.191 -11056879.096 -22212985.175 10 0 60883 77400.00000 0 -4706288.350 -13465959.910 -21140469.734 10 0 60883 78300.00000 0 -3775823.473 -15809107.995 -19657139.405 10 0 60883 79200.00000 0 -3087413.359 -18019181.360 -17791964.813 10 0 60883 80100.00000 0 -2629783.169 -20031758.568 -15581308.111 10 0 60883 81000.00000 0 -2380033.066 -21787682.598 -13068207.623 10 0 60883 81900.00000 0 -2304835.184 -23235398.018 -10301535.111 10 0 60883 82800.00000 0 -2362074.742 -24332984.782 -7335042.391 10 0 60883 83700.00000 0 -2502864.657 -25049804.821 -4226316.022 10 0 60883 84600.00000 0 -2673847.614 -25367693.798 -1035660.448 10 0 60883 85500.00000 0 -2819687.767 -25281649.409 2175068.708 10 0 60884 0.00000 0 -2885646.550 -24799988.715 5343658.426 10 0 60884 900.00000 0 -2820133.872 -23943968.607 8408737.986 10 0 60884 1800.00000 0 -2577127.118 -22746886.852 11310957.520 10 0 60884 2700.00000 0 -2118356.366 -21252700.934 13994128.861 10 0 60884 3600.00000 0 -1415163.792 -19514223.160 16406303.156 10 0 60884 4500.00000 0 -449959.110 -17590967.006 18500766.939 10 0 60884 5400.00000 0 782790.430 -15546734.038 20236938.119 10 0 60884 6300.00000 0 2276077.722 -13447041.156 21581145.467 10 0 60884 7200.00000 0 4010402.515 -11356494.294 22507277.352 10 0 60884 8100.00000 0 5954346.751 -9336216.728 22997287.787 10 0 60884 9000.00000 0 8065656.506 -7441437.861 23041550.290 10 0 60884 9900.00000 0 10292787.564 -5719341.808 22639052.614 10 0 60884 10800.00000 0 12576852.507 -4207264.528 21797428.097 10 0 60884 11700.00000 0 14853890.476 -2931314.056 20532822.129 10 0 60884 12600.00000 0 17057366.925 -1905471.186 18869595.122 10 0 60884 13500.00000 0 19120800.784 -1131208.194 16839866.271 10 0 60884 14400.00000 0 20980410.451 -597641.813 14482905.441 10 0 60884 15300.00000 0 22577668.495 -282214.426 11844383.515 10 0 60884 16200.00000 0 23861658.135 -151875.167 8975494.510 10 0 60884 17100.00000 0 24791132.075 -164711.412 5931965.631 10 0 60884 18000.00000 0 25336186.314 -271961.730 2772974.088 10 0 60884 18900.00000 0 25479477.310 -420324.798 -440008.186 10 0 60884 19800.00000 0 25216930.029 -554465.718 -3644418.905 10 0 60884 20700.00000 0 24557905.874 -619612.345 -6777834.431 10 0 60884 21600.00000 0 23524822.574 -564130.037 -9779198.208 10 0 60884 22500.00000 0 22152241.544 -341963.900 -12590023.296 10 0 60884 23400.00000 0 20485461.126 85156.821 -15155544.099 10 0 60884 24300.00000 0 18578675.278 745847.359 -17425793.592 10 0 60884 25200.00000 0 16492775.826 1657609.856 -19356584.076 10 0 60884 26100.00000 0 14292891.499 2825852.549 -20910371.665 10 0 60884 27000.00000 0 12045767.870 4243428.113 -22056987.453 10 0 60884 27900.00000 0 9817098.765 5890711.316 -22774221.248 10 0 60884 28800.00000 0 7668921.292 7736213.097 -23048246.976 10 0 60884 29700.00000 0 5657183.449 9737705.408 -22873882.180 10 0 60884 30600.00000 0 3829585.467 11843809.650 -22254677.470 10 0 60884 31500.00000 0 2223784.089 13995982.036 -21202835.104 10 0 60884 32400.00000 0 866033.327 16130812.711 -19738959.200 10 0 60884 33300.00000 0 -229683.440 18182542.457 -17891643.283 10 0 60884 34200.00000 0 -1061995.850 20085691.880 -15696903.892 10 0 60884 35100.00000 0 -1641951.492 21777693.452 -13197471.848 10 0 60884 36000.00000 0 -1992293.857 23201416.873 -10441955.388 10 0 60884 36900.00000 0 -2146245.837 24307482.769 -7483891.770 10 0 60884 37800.00000 0 -2145851.831 25056268.796 -4380705.987 10 0 60884 38700.00000 0 -2039949.780 25419525.114 -1192596.889 10 0 60884 39600.00000 0 -1881859.728 25381532.616 2018627.622 10 0 60884 40500.00000 0 -1726887.091 24939756.366 5190743.870 10 0 60884 41400.00000 0 -1629746.253 24104967.806 8262311.319 10 0 60884 42300.00000 0 -1642013.199 22900831.231 11173854.256 10 0 60884 43200.00000 0 -1809714.395 21362972.276 13869004.017 10 0 60884 44100.00000 0 -2171153.259 19537567.414 16295580.381 10 0 60884 45000.00000 0 -2755065.528 17479513.075 18406592.103 10 0 60884 45900.00000 0 -3579181.098 15250250.147 20161138.170 10 0 60884 46800.00000 0 -4649253.093 12915333.538 21525193.341 10 0 60884 47700.00000 0 -5958595.605 10541846.829 22472263.548 10 0 60884 48600.00000 0 -7488150.697 8195768.174 22983899.134 10 0 60884 49500.00000 0 -9207083.460 5939395.622 23050056.309 10 0 60884 50400.00000 0 -11073882.243 3828937.600 22669299.751 10 0 60884 51300.00000 0 -13037920.263 1912367.630 21848841.969 10 0 60884 52200.00000 0 -15041415.647 227631.695 20604417.805 10 0 60884 53100.00000 0 -17021710.137 -1198717.590 18959995.292 10 0 60884 54000.00000 0 -18913773.063 -2352403.259 16947327.063 10 0 60884 54900.00000 0 -20652827.220 -3231785.844 14605349.446 10 0 60884 55800.00000 0 -22176987.519 -3847689.404 11979439.469 10 0 60884 56700.00000 0 -23429801.946 -4222698.801 9120542.929 10 0 60884 57600.00000 0 -24362587.834 -4389957.563 6084189.528 10 0 60884 58500.00000 0 -24936464.282 -4391517.051 2929413.814 10 0 60884 59400.00000 0 -25123993.979 -4276306.892 -282397.066 10 0 60884 60300.00000 0 -24910363.804 -4097813.240 -3488705.886 10 0 60884 61200.00000 0 -24294053.005 -3911564.166 -6627053.700 10 0 60884 62100.00000 0 -23286959.534 -3772530.163 -9636288.896 10 0 60884 63000.00000 0 -21913978.269 -3732551.535 -12457771.569 10 0 60884 63900.00000 0 -20212048.350 -3837903.504 -15036528.285 10 0 60884 64800.00000 0 -18228709.674 -4127103.911 -17322333.458 10 0 60884 65700.00000 0 -16020229.499 -4629057.920 -19270695.270 10 0 60884 66600.00000 0 -13649378.418 -5361619.523 -20843726.239 10 0 60884 67500.00000 0 -11182949.681 -6330631.631 -22010881.240 10 0 60884 68400.00000 0 -8689126.391 -7529485.920 -22749548.722 10 0 60884 69300.00000 0 -6234807.195 -8939221.309 -23045484.082 10 0 60884 70200.00000 0 -3883002.339 -10529157.035 -22893077.452 10 0 60884 71100.00000 0 -1690408.437 -12258033.589 -22295451.573 10 0 60884 72000.00000 0 294737.548 -14075613.396 -21264388.777 10 0 60884 72900.00000 0 2034436.930 -15924673.887 -19820089.415 10 0 60884 73800.00000 0 3502267.992 -17743309.212 -17990767.236 10 0 60884 74700.00000 0 4684230.911 -19467444.069 -15812090.350 10 0 60884 75600.00000 0 5579065.940 -21033454.440 -13326479.189 10 0 60884 76500.00000 0 6198033.924 -22380785.673 -10582275.554 10 0 60884 77400.00000 0 6564170.743 -23454458.647 -7632799.270 10 0 60884 78300.00000 0 6711049.127 -24207359.580 -4535310.967 10 0 60884 79200.00000 0 6681101.795 -24602218.219 -1349901.219 10 0 60884 80100.00000 0 6523577.964 -24613192.238 1861672.324 10 0 60884 81000.00000 0 6292220.343 -24226992.242 5037177.422 10 0 60884 81900.00000 0 6042761.162 -23443500.892 8115106.457 10 0 60884 82800.00000 0 5830342.995 -22275860.772 11035859.558 10 0 60884 83700.00000 0 5706973.030 -20750027.608 13742889.293 10 0 60884 84600.00000 0 5719117.767 -18903807.507 16183785.564 10 0 60884 85500.00000 0 5905539.064 -16785418.058 18311280.548 10 0 60885 0.00000 0 6295462.275 -14451632.849 20084155.081 10 0 60885 900.00000 0 6907153.676 -11965584.347 21468030.818 10 0 60885 1800.00000 0 7746966.635 -9394318.443 22436031.335 10 0 60885 2700.00000 0 8808897.941 -6806196.676 22969303.235 10 0 60885 3600.00000 0 10074673.587 -4268255.561 23057385.044 10 0 60885 4500.00000 0 11514362.149 -1843629.983 22698417.703 10 0 60885 5400.00000 0 13087491.984 410853.472 21899191.986 10 0 60885 6300.00000 0 14744627.567 2446814.348 20675031.063 10 0 60885 7200.00000 0 16429341.078 4226099.127 19049509.290 10 0 60885 8100.00000 0 18080498.607 5722131.296 17054011.272 10 0 60885 9000.00000 0 19634766.718 6920774.477 14727138.185 10 0 60885 9900.00000 0 21029235.269 7820672.419 12113971.434 10 0 60885 10800.00000 0 22204046.834 8433051.412 9265206.657 10 0 60885 11700.00000 0 23104921.988 8780993.199 6236173.959 10 0 60885 12600.00000 0 23685473.452 8898208.918 3085762.978 10 0 60885 13500.00000 0 23909210.381 8827365.949 -124726.310 10 0 60885 14400.00000 0 23751146.806 8618038.864 -3332784.196 10 0 60885 15300.00000 0 23198944.710 8324372.015 -6475918.899 10 0 60885 16200.00000 0 22253542.000 8002553.939 -9492886.156 10 0 60885 17100.00000 0 20929237.506 7708212.062 -12324895.367 10 0 60885 18000.00000 0 19253228.489 7493839.729 -14916767.342 10 0 60885 18900.00000 0 17264619.532 7406366.200 -17218019.796 10 0 60885 19800.00000 0 15012944.373 7484974.057 -19183858.447 10 0 60885 20700.00000 0 12556262.920 7759257.646 -20776053.668 10 0 60885 21600.00000 0 9958913.713 8247801.383 -21963685.387 10 0 60885 22500.00000 0 7289016.391 8957238.559 -22723741.806 10 0 60885 23400.00000 0 4615829.059 9881830.608 -23041560.725 10 0 60885 24300.00000 0 2007071.100 11003584.500 -22911105.570 10 0 60885 25200.00000 0 -473677.042 12292903.066 -22335071.651 10 0 60885 26100.00000 0 -2769389.224 13709740.459 -21324821.478 10 0 60885 27000.00000 0 -4831724.499 15205213.762 -19900151.349 10 0 60885 27900.00000 0 -6622786.176 16723602.598 -18088894.554 10 0 60885 28800.00000 0 -8116437.548 18204652.493 -15926369.663 10 0 60885 29700.00000 0 -9299121.515 19586085.106 -13454685.194 10 0 60885 30600.00000 0 -10170152.236 20806209.965 -10721914.628 10 0 60885 31500.00000 0 -10741468.959 21806528.265 -7781158.134 10 0 60885 32400.00000 0 -11036864.678 22534219.735 -4689509.468 10 0 60885 33300.00000 0 -11090724.062 22944408.699 -1506948.197 10 0 60885 34200.00000 0 -10946325.450 23002114.710 1704821.198 10 0 60885 35100.00000 0 -10653779.693 22683806.521 4883560.934 10 0 60885 36000.00000 0 -10267693.514 21978494.716 7967699.413 10 0 60885 36900.00000 0 -9844656.282 20888317.607 10897515.696 10 0 60885 37800.00000 0 -9440656.120 19428596.037 13616286.626 10 0 60885 38700.00000 0 -9108533.937 17627354.718 16071375.153 10 0 60885 39600.00000 0 -8895582.138 15524329.670 18215239.638 10 0 60885 40500.00000 0 -8841388.541 13169502.406 20006345.590 10 0 60885 41400.00000 0 -8976015.780 10621220.795 21409963.177 10 0 60885 42300.00000 0 -9318592.490 7943983.403 22398835.894 10 0 60885 43200.00000 0 -9876375.637 5205977.766 22953708.141 10 0 60885 44100.00000 0 -10644323.948 2476473.088 23063701.840 10 0 60885 45000.00000 0 -11605201.368 -176826.125 22726534.768 10 0 60885 45900.00000 0 -12730207.692 -2690357.193 21948575.983 10 0 60885 46800.00000 0 -13980111.676 -5007101.536 20744736.410 10 0 60885 47700.00000 0 -15306841.013 -7078713.190 19138195.551 10 0 60885 48600.00000 0 -16655464.332 -8867285.691 17159968.218 10 0 60885 49500.00000 0 -17966483.655 -10346683.940 14848318.120 10 0 60885 50400.00000 0 -19178342.192 -11503385.438 12248028.236 10 0 60885 51300.00000 0 -20230042.689 -12336795.478 9409540.856 10 0 60885 52200.00000 0 -21063766.195 -12859022.811 6387983.005 10 0 60885 53100.00000 0 -21627380.312 -13094124.997 3242095.735 10 0 60885 54000.00000 0 -21876730.076 -13076855.237 33088.097 10 0 60885 54900.00000 0 -21777613.309 -12850963.837 -3176561.482 10 0 60885 55800.00000 0 -21307355.283 -12467126.719 -6324332.076 10 0 60885 56700.00000 0 -20455914.466 -11980589.618 -9348890.322 10 0 60885 57600.00000 0 -19226470.999 -11448628.960 -12191298.280 10 0 60885 58500.00000 0 -17635471.746 -10927938.443 -14796174.089 10 0 60885 59400.00000 0 -15712128.998 -10472053.549 -17112781.496 10 0 60885 60300.00000 0 -13497393.349 -10128924.444 -19096026.045 10 0 60885 61200.00000 0 -11042443.698 -9938741.235 -20707337.722 10 0 60885 62100.00000 0 -8406757.814 -9932104.414 -21915422.661 10 0 60885 63000.00000 0 -5655844.528 -10128618.334 -22696869.316 10 0 60885 63900.00000 0 -2858732.704 -10535967.207 -23036597.723 10 0 60885 64800.00000 0 -85322.016 -11149512.404 -22928143.823 10 0 60885 65700.00000 0 2596294.010 -11952427.517 -22373774.145 10 0 60885 66600.00000 0 5122421.486 -12916364.849 -21384429.565 10 0 60885 67500.00000 0 7436168.941 -14002624.513 -19979500.127 10 0 60885 68400.00000 0 9489560.466 -15163776.254 -18186436.146 10 0 60885 69300.00000 0 11245272.726 -16345665.115 -16040203.891 10 0 60885 70200.00000 0 12677925.351 -17489716.133 -13582597.011 10 0 60885 71100.00000 0 13774872.949 -18535440.863 -10861417.539 10 0 60885 72000.00000 0 14536467.958 -19423040.217 -7929542.754 10 0 60885 72900.00000 0 14975785.591 -20095994.257 -4843896.245 10 0 60885 73800.00000 0 15117824.577 -20503530.312 -1664343.270 10 0 60885 74700.00000 0 14998219.149 -20602866.012 1547468.069 10 0 60885 75600.00000 0 14661517.942 -20361133.399 4729297.512 10 0 60885 76500.00000 0 14159103.324 -19756903.700 7819512.291 10 0 60885 77400.00000 0 13546839.362 -18781249.062 10758272.911 10 0 60885 78300.00000 0 12882547.696 -17438296.871 13488682.635 10 0 60885 79200.00000 0 12223417.346 -15745253.260 15957879.203 10 0 60885 80100.00000 0 11623457.013 -13731894.398 18118048.475 10 0 60885 81000.00000 0 11131096.373 -11439545.941 19927341.384 10 0 60885 81900.00000 0 10787036.528 -8919592.029 21350677.392 10 0 60885 82800.00000 0 10622439.354 -6231574.383 22360419.802 10 0 60885 83700.00000 0 10657531.469 -3440958.796 22936910.482 10 0 60885 84600.00000 0 10900681.464 -616659.875 23068854.074 10 0 60885 85500.00000 0 11347989.604 2171575.122 22753544.212 99